"startDT [UTC]","vpos","CH4 [ppm]","stdev(CH4) [ppm]","CO2 [ppm]","stdev(CO2) [ppm]","H2O_reported [%]","stdev(H2O_reported)","CavityPressure [torr]","CavityTemp [C]","OutletValve","CH4_dry [ppm]","CO2_dry [ppm]","DasTemp [C]","EtalonTemp [C]","WarmBoxTemp [C]","MPVPosition","T_ECpre [C]","T_EC1 [C]","T_EC2 [C]","p_inlet [hPa]","p_in [hPa]","p_out [hPa]","T_inlet [C]","RH_inlet [%]","dwpt_inlet [C]","T_vent [C]","RH_vent [%]","dwpt_vent [C]","flow_vent [l min-1]","flow_inlet [l min-1]","dwpt_sample [C]","T_room [C]"
2015-05-05 00:00:00,0.0,1.91569,0.00033,404.453,0.038,0.2279,0.0024,140.000,45.000,34268.08460,1.92002,405.568,32.811,45.068,45.000,0.00,0.09,-272.72,-272.77,-3,970,-2,21.5,6.7,-16.2,21.1,7.0,-16.1,5.73,2.04,-12.2,25.8
2015-05-05 00:01:00,0.0,1.91618,0.00041,404.479,0.039,0.2324,0.0026,140.001,45.000,34264.79114,1.92057,405.616,32.810,45.068,45.000,0.00,0.09,-272.73,-272.78,-2,970,-2,21.5,6.8,-16.0,21.1,7.1,-15.9,5.73,2.03,-12.2,25.8
2015-05-05 00:02:00,0.0,1.91647,0.00044,404.458,0.024,0.2383,0.0019,139.998,45.000,34263.70083,1.92099,405.622,32.812,45.068,45.000,0.00,0.09,-272.72,-272.77,-3,970,-2,21.5,7.0,-15.7,21.1,7.3,-15.6,5.73,2.03,-12.2,25.8
2015-05-05 00:03:00,0.0,1.91545,0.00053,404.442,0.036,0.2420,0.0012,139.996,45.000,34263.33795,1.92009,405.626,32.826,45.068,45.000,0.00,0.09,-272.72,-272.77,-2,970,-2,21.5,7.1,-15.5,21.1,7.4,-15.4,5.73,2.02,-12.2,25.8
2015-05-05 00:04:00,0.0,1.91515,0.00023,404.429,0.032,0.2424,0.0016,140.002,45.000,34265.38721,1.91975,405.617,32.817,45.068,45.000,0.00,0.09,-272.72,-272.77,-3,971,-2,21.5,7.1,-15.5,21.1,7.4,-15.3,5.73,2.03,-12.2,25.8
2015-05-05 00:05:00,0.0,1.91497,0.00040,404.359,0.033,0.2455,0.0015,139.996,45.000,34265.93060,1.91964,405.559,32.816,45.068,45.000,0.00,0.09,-272.72,-272.78,-2,970,-2,21.5,7.2,-15.4,21.1,7.5,-15.2,5.73,2.01,-12.2,25.8
2015-05-05 00:06:00,0.0,1.91485,0.00056,404.353,0.022,0.2514,0.0023,139.996,45.000,34265.87178,1.91965,405.585,32.814,45.068,45.000,0.00,0.09,-272.72,-272.77,-3,970,-2,21.5,7.4,-15.1,21.1,7.6,-15.0,5.73,2.01,-12.2,25.8
2015-05-05 00:07:00,0.0,1.91463,0.00033,404.355,0.041,0.2516,0.0020,139.999,45.000,34265.99226,1.91939,405.582,32.849,45.068,45.000,0.00,0.09,-272.72,-272.77,-3,970,-2,21.5,7.5,-15.0,21.1,7.7,-14.9,5.73,2.00,-12.2,25.8
2015-05-05 00:08:00,0.0,1.91434,0.00029,404.339,0.026,0.2545,0.0018,140.002,45.000,34268.06178,1.91914,405.587,32.874,45.068,45.000,0.00,0.09,-272.72,-272.77,-3,970,-2,21.5,7.5,-15.0,21.1,7.7,-14.9,5.73,2.01,-12.2,25.8
2015-05-05 00:09:00,0.0,1.91445,0.00028,404.341,0.031,0.2558,0.0017,140.003,45.000,34267.61388,1.91933,405.592,32.869,45.068,45.000,0.00,0.09,-272.72,-272.78,-3,970,-2,21.5,7.5,-14.9,21.1,7.8,-14.8,5.73,2.01,-12.2,25.8
2015-05-05 00:10:00,0.0,1.91433,0.00043,404.343,0.042,0.2561,0.0017,140.004,45.000,34269.66136,1.91914,405.597,32.871,45.068,45.000,0.00,0.09,-272.72,-272.78,-3,969,-2,21.5,7.5,-14.8,21.1,7.8,-14.7,5.73,2.02,-12.2,25.8
2015-05-05 00:11:00,0.0,1.91453,0.00026,404.310,0.051,0.2556,0.0015,140.000,45.000,34269.72827,1.91940,405.560,32.872,45.068,45.000,0.00,0.09,-272.72,-272.78,-2,970,-2,21.5,7.5,-14.9,21.1,7.8,-14.8,5.73,2.03,-12.2,25.8
2015-05-05 00:12:00,0.0,1.91433,0.00040,404.323,0.029,0.2554,0.0012,140.001,45.000,34272.23449,1.91922,405.574,32.853,45.068,45.000,0.00,0.09,-272.72,-272.77,-3,970,-2,21.6,7.5,-14.9,21.2,7.8,-14.8,5.73,2.03,-12.2,25.8
2015-05-05 00:13:00,0.0,1.91441,0.00028,404.309,0.034,0.2576,0.0020,140.000,45.000,34272.57809,1.91927,405.569,32.840,45.068,45.000,0.00,0.09,-272.72,-272.78,-3,970,-2,21.6,7.5,-14.8,21.2,7.8,-14.7,5.73,2.03,-12.2,25.6
2015-05-05 00:14:00,0.0,1.91427,0.00048,404.302,0.026,0.2603,0.0017,139.999,45.000,34274.30889,1.91920,405.578,32.807,45.068,45.000,0.00,0.09,-272.72,-272.78,-3,971,-2,21.6,7.6,-14.7,21.2,7.9,-14.6,5.73,2.02,-12.2,25.5
2015-05-05 00:15:00,0.0,1.91438,0.00046,404.272,0.037,0.2621,0.0021,140.001,45.000,34274.45653,1.91934,405.555,32.761,45.068,45.000,0.00,0.09,-272.72,-272.78,-3,972,-2,21.6,7.7,-14.6,21.2,7.9,-14.5,5.73,2.03,-12.2,25.5
2015-05-05 00:16:00,0.0,1.91404,0.00032,404.271,0.029,0.2660,0.0022,139.999,45.000,34278.32862,1.91911,405.573,32.715,45.069,45.001,0.00,0.09,-272.72,-272.77,-3,972,-2,21.6,7.8,-14.4,21.2,8.0,-14.3,5.73,2.03,-12.2,25.5
2015-05-05 00:17:00,0.0,1.91409,0.00035,404.247,0.028,0.2690,0.0016,139.998,45.000,34279.99361,1.91917,405.564,32.657,45.069,45.001,0.00,0.09,-272.73,-272.77,-4,973,-2,21.7,7.9,-14.3,21.3,8.1,-14.2,5.73,2.06,-12.2,25.5
2015-05-05 00:18:00,0.0,1.91378,0.00048,404.232,0.023,0.2715,0.0016,140.003,44.999,34283.68728,1.91897,405.560,32.568,45.068,45.000,0.00,0.09,-272.73,-272.78,-4,974,-2,21.7,7.9,-14.2,21.3,8.2,-14.1,5.73,2.08,-12.1,25.6
2015-05-05 00:19:00,0.0,1.91348,0.00039,404.216,0.032,0.2736,0.0013,140.001,44.999,34286.43785,1.91867,405.554,32.458,45.068,45.000,0.00,0.09,-272.72,-272.77,-3,975,-2,21.7,8.0,-14.0,21.3,8.3,-13.9,5.73,2.05,-12.1,25.7
2015-05-05 00:20:00,0.0,1.91363,0.00040,404.218,0.040,0.2752,0.0020,139.999,44.999,34285.82612,1.91887,405.567,32.369,45.069,45.001,0.00,0.09,-272.72,-272.77,-3,976,-2,21.7,8.0,-14.0,21.3,8.3,-13.9,5.73,1.99,-12.1,25.9
2015-05-05 00:21:00,0.0,1.91351,0.00037,404.225,0.029,0.2763,0.0019,140.003,44.999,34287.64984,1.91876,405.579,32.285,45.069,45.001,0.00,0.09,-272.72,-272.78,-4,976,-2,21.7,8.0,-14.0,21.3,8.3,-13.8,5.73,1.97,-12.2,25.8
2015-05-05 00:22:00,0.0,1.91346,0.00055,404.195,0.026,0.2760,0.0018,139.998,44.999,34286.63898,1.91865,405.545,32.215,45.069,45.001,0.00,0.09,-272.72,-272.78,-4,977,-2,21.7,8.0,-14.0,21.3,8.3,-13.9,5.73,2.00,-12.1,25.9
2015-05-05 00:23:00,0.0,1.91384,0.00042,404.202,0.029,0.2778,0.0023,139.999,44.999,34283.92708,1.91909,405.563,32.184,45.069,45.001,0.00,0.09,-272.71,-272.78,-4,977,-2,21.7,8.1,-13.9,21.3,8.3,-13.8,5.73,2.07,-12.1,25.9
2015-05-05 00:24:00,0.0,1.91383,0.00031,404.209,0.035,0.2765,0.0017,139.999,44.999,34282.15345,1.91909,405.563,32.133,45.069,45.001,0.00,0.09,-272.72,-272.78,-4,977,-2,21.7,8.1,-13.9,21.3,8.3,-13.8,5.73,2.10,-12.1,25.8
2015-05-05 00:25:00,0.0,1.91352,0.00037,404.167,0.037,0.2782,0.0019,139.995,44.999,34284.75881,1.91883,405.530,32.082,45.069,45.000,0.00,0.09,-272.72,-272.78,-4,978,-2,21.7,8.1,-13.9,21.3,8.4,-13.8,5.73,2.02,-12.1,25.8
2015-05-05 00:26:00,0.0,1.91340,0.00024,404.181,0.046,0.2788,0.0016,139.997,44.999,34283.26881,1.91867,405.547,32.036,45.069,45.000,0.00,0.09,-272.72,-272.77,-5,978,-2,21.6,8.1,-13.9,21.3,8.4,-13.7,5.73,1.95,-12.1,25.9
2015-05-05 00:27:00,0.0,1.91364,0.00052,404.160,0.047,0.2795,0.0022,140.001,45.000,34285.05032,1.91899,405.529,32.000,45.069,45.000,0.00,0.09,-272.72,-272.78,-4,978,-2,21.6,8.1,-13.8,21.3,8.4,-13.7,5.73,1.98,-12.1,25.9
2015-05-05 00:28:00,0.0,1.91354,0.00039,404.167,0.034,0.2795,0.0024,139.999,44.999,34285.31303,1.91879,405.534,31.980,45.069,45.000,0.00,0.09,-272.72,-272.79,-4,978,-2,21.6,8.1,-13.9,21.3,8.4,-13.7,5.73,2.08,-12.1,25.9
2015-05-05 00:29:00,0.0,1.91351,0.00029,404.189,0.021,0.2770,0.0015,140.002,44.999,34283.05935,1.91880,405.546,31.943,45.069,45.000,0.00,0.09,-272.72,-272.77,-5,979,-2,21.6,8.1,-13.9,21.2,8.4,-13.8,5.73,2.09,-12.1,25.8
2015-05-05 00:30:00,0.0,1.91348,0.00032,404.186,0.026,0.2791,0.0017,140.004,45.000,34284.34081,1.91874,405.554,31.935,45.068,45.000,0.00,0.09,-272.72,-272.77,-5,978,-2,21.6,8.1,-13.9,21.3,8.4,-13.7,5.73,2.00,-12.1,25.8
2015-05-05 00:31:00,0.0,1.91345,0.00026,404.145,0.026,0.2784,0.0016,139.999,45.000,34283.88709,1.91873,405.508,31.909,45.068,45.000,0.00,0.09,-272.72,-272.78,-4,979,-2,21.6,8.1,-13.9,21.2,8.4,-13.8,5.73,1.95,-12.1,25.8
2015-05-05 00:32:00,0.0,1.91337,0.00037,404.176,0.037,0.2773,0.0019,139.996,44.999,34281.24346,1.91863,405.534,31.882,45.068,45.000,0.00,0.09,-272.72,-272.78,-4,979,-2,21.6,8.1,-14.0,21.2,8.4,-13.8,5.73,2.02,-12.1,25.7
2015-05-05 00:33:00,0.0,1.91351,0.00048,404.165,0.020,0.2759,0.0013,139.998,45.000,34280.20475,1.91876,405.515,31.922,45.068,45.000,0.00,0.09,-272.72,-272.78,-5,979,-2,21.6,8.1,-14.0,21.2,8.3,-13.9,5.73,2.06,-12.1,25.7
2015-05-05 00:34:00,0.0,1.91350,0.00045,404.188,0.032,0.2749,0.0015,140.001,45.000,34280.54210,1.91870,405.534,31.954,45.068,45.000,0.00,0.09,-272.72,-272.78,-5,978,-2,21.6,8.0,-14.1,21.2,8.3,-13.9,5.73,2.07,-12.1,25.7
2015-05-05 00:35:00,0.0,1.91336,0.00036,404.195,0.035,0.2680,0.0030,140.001,45.000,34283.50963,1.91847,405.509,32.006,45.068,45.000,0.00,0.09,-272.72,-272.78,-4,977,-2,21.6,7.8,-14.3,21.2,8.2,-14.1,5.73,2.05,-12.1,25.7
2015-05-05 00:36:00,0.0,1.91329,0.00040,404.209,0.032,0.2594,0.0026,140.002,45.001,34283.24290,1.91822,405.479,32.066,45.068,45.000,0.00,0.09,-272.72,-272.76,-4,977,-2,21.6,7.6,-14.7,21.2,7.9,-14.5,5.73,2.03,-12.1,25.7
2015-05-05 00:37:00,0.0,1.91376,0.00036,404.280,0.034,0.2541,0.0023,140.002,45.001,34281.98593,1.91855,405.523,32.138,45.068,45.000,0.00,0.09,-272.72,-272.77,-4,976,-2,21.6,7.4,-15.0,21.2,7.7,-14.8,5.73,2.03,-12.1,25.8
2015-05-05 00:38:00,0.0,1.91381,0.00035,404.281,0.033,0.2481,0.0026,139.998,45.001,34281.87733,1.91849,405.497,32.207,45.068,45.000,0.00,0.09,-272.72,-272.78,-4,976,-2,21.5,7.3,-15.3,21.2,7.6,-15.0,5.73,2.03,-12.1,25.8
2015-05-05 00:39:00,0.0,1.91400,0.00035,404.327,0.034,0.2461,0.0018,139.995,45.001,34281.41751,1.91868,405.529,32.278,45.068,45.000,0.00,0.09,-272.71,-272.77,-4,975,-2,21.5,7.2,-15.4,21.2,7.5,-15.2,5.73,2.02,-12.1,25.8
2015-05-05 00:40:00,0.0,1.91433,0.00031,404.337,0.030,0.2437,0.0023,140.003,45.001,34281.76277,1.91895,405.531,32.340,45.068,45.000,0.00,0.09,-272.72,-272.77,-4,975,-2,21.5,7.1,-15.5,21.2,7.4,-15.3,5.73,2.03,-12.1,25.9
2015-05-05 00:41:00,0.0,1.91445,0.00025,404.340,0.047,0.2418,0.0020,139.995,45.001,34278.93500,1.91903,405.523,32.395,45.068,44.999,0.00,0.09,-272.72,-272.78,-4,975,-2,21.5,7.1,-15.6,21.2,7.4,-15.4,5.73,2.03,-12.1,25.9
2015-05-05 00:42:00,0.0,1.91451,0.00028,404.352,0.040,0.2402,0.0020,139.999,45.001,34278.97295,1.91907,405.527,32.444,45.068,44.999,0.00,0.09,-272.72,-272.78,-3,974,-2,21.5,7.0,-15.7,21.2,7.3,-15.5,5.73,2.03,-12.1,25.9
2015-05-05 00:43:00,0.0,1.91432,0.00047,404.354,0.035,0.2383,0.0014,139.999,45.001,34280.22513,1.91885,405.519,32.502,45.068,44.999,0.00,0.09,-272.72,-272.77,-3,973,-2,21.5,7.0,-15.8,21.2,7.2,-15.6,5.73,2.03,-12.1,25.9
2015-05-05 00:44:00,0.0,1.91402,0.00031,404.367,0.029,0.2369,0.0024,140.000,45.000,34281.07018,1.91853,405.525,32.553,45.068,44.999,0.00,0.09,-272.72,-272.78,-3,973,-2,21.5,7.0,-15.9,21.2,7.2,-15.7,5.73,2.03,-12.1,25.9
2015-05-05 00:45:00,0.0,1.91384,0.00044,404.329,0.050,0.2385,0.0018,140.001,45.000,34281.64348,1.91834,405.497,32.592,45.068,44.999,0.00,0.09,-272.72,-272.78,-4,973,-2,21.5,7.0,-15.8,21.2,7.2,-15.6,5.73,2.03,-12.1,25.8
2015-05-05 00:46:00,0.0,1.91421,0.00036,404.380,0.034,0.2384,0.0018,140.000,45.000,34279.23907,1.91873,405.545,32.624,45.068,44.999,0.00,0.09,-272.72,-272.77,-3,972,-2,21.5,7.0,-15.8,21.2,7.2,-15.6,5.73,2.03,-12.1,25.8
2015-05-05 00:47:00,0.0,1.91437,0.00048,404.393,0.030,0.2366,0.0025,140.000,45.001,34277.76613,1.91883,405.550,32.630,45.068,44.999,0.00,0.09,-272.71,-272.77,-3,972,-2,21.5,7.0,-15.9,21.2,7.2,-15.6,5.73,2.03,-12.1,25.8
2015-05-05 00:48:00,0.0,1.91445,0.00044,404.409,0.030,0.2326,0.0022,140.000,45.000,34277.82423,1.91889,405.547,32.637,45.068,45.000,0.00,0.09,-272.72,-272.78,-4,973,-2,21.5,6.8,-16.1,21.2,7.1,-15.8,5.73,2.03,-12.1,25.8
2015-05-05 00:49:00,0.0,1.91433,0.00026,404.430,0.042,0.2330,0.0021,140.001,45.000,34278.27890,1.91874,405.570,32.662,45.068,45.000,0.00,0.09,-272.72,-272.78,-3,972,-2,21.5,6.8,-16.1,21.2,7.1,-15.9,5.73,2.03,-12.1,25.8
2015-05-05 00:50:00,0.0,1.91426,0.00048,404.409,0.037,0.2308,0.0023,139.999,45.000,34279.57841,1.91863,405.539,32.687,45.068,45.000,0.00,0.09,-272.71,-272.77,-3,972,-2,21.5,6.8,-16.1,21.2,7.0,-15.9,5.73,2.03,-12.1,25.8
2015-05-05 00:51:00,0.0,1.91472,0.00036,404.413,0.030,0.2266,0.0018,139.997,45.000,34277.57287,1.91901,405.523,32.709,45.068,45.000,0.00,0.09,-272.71,-272.78,-3,972,-2,21.5,6.7,-16.3,21.2,6.9,-16.1,5.73,2.02,-12.1,25.8
2015-05-05 00:52:00,0.0,1.91419,0.00040,404.414,0.034,0.2276,0.0018,139.999,45.000,34279.20211,1.91849,405.526,32.750,45.068,45.000,0.00,0.09,-272.72,-272.78,-3,972,-2,21.5,6.7,-16.3,21.2,6.9,-16.1,5.73,2.03,-12.1,25.8
2015-05-05 00:53:00,0.0,1.91427,0.00035,404.410,0.027,0.2283,0.0019,140.000,45.000,34279.96302,1.91862,405.525,32.760,45.068,45.000,0.00,0.09,-272.72,-272.77,-3,972,-2,21.5,6.6,-16.5,21.2,6.9,-16.1,5.73,2.01,-12.1,25.8
2015-05-05 00:54:00,0.0,1.91451,0.00026,404.440,0.043,0.2278,0.0010,140.002,45.001,34279.42092,1.91882,405.553,32.767,45.068,45.000,0.00,0.09,-272.72,-272.78,-3,971,-2,21.5,6.7,-16.3,21.2,6.9,-16.1,5.73,2.02,-12.1,25.8
2015-05-05 00:55:00,0.0,1.91435,0.00040,404.432,0.021,0.2267,0.0018,140.002,45.001,34280.05707,1.91863,405.542,32.800,45.068,45.000,0.00,0.09,-272.72,-272.78,-3,972,-2,21.5,6.7,-16.3,21.2,6.9,-16.2,5.73,2.01,-12.1,25.8
2015-05-05 00:56:00,0.0,1.91434,0.00037,404.406,0.043,0.2296,0.0014,140.000,45.001,34278.18078,1.91868,405.529,32.821,45.068,45.000,0.00,0.09,-272.72,-272.78,-3,971,-2,21.5,6.7,-16.2,21.2,7.0,-16.0,5.73,2.01,-12.1,25.9
2015-05-05 00:57:00,0.0,1.91409,0.00022,404.393,0.031,0.2322,0.0020,139.999,45.000,34278.50940,1.91851,405.527,32.856,45.068,45.000,0.00,0.09,-272.72,-272.77,-3,971,-2,21.6,6.8,-16.1,21.2,7.0,-15.9,5.73,2.01,-12.1,25.9
2015-05-05 00:58:00,0.0,1.91419,0.00041,404.419,0.034,0.2325,0.0015,139.999,45.000,34276.64889,1.91858,405.557,32.873,45.068,45.000,0.00,0.09,-272.72,-272.78,-3,971,-2,21.6,6.8,-16.0,21.2,7.1,-15.9,5.73,2.02,-12.1,25.9
2015-05-05 00:59:00,0.0,1.91410,0.00042,404.388,0.047,0.2344,0.0017,140.000,45.000,34275.90922,1.91856,405.537,32.874,45.068,45.000,0.00,0.09,-272.72,-272.78,-3,971,-2,21.6,6.9,-15.9,21.2,7.1,-15.8,5.73,2.02,-12.1,25.8
2015-05-05 01:00:00,0.0,1.91408,0.00025,404.361,0.027,0.2321,0.0023,140.002,45.000,34278.61343,1.91848,405.495,32.873,45.068,45.000,0.00,0.09,-272.72,-272.77,-3,971,-2,21.6,6.8,-16.0,21.3,7.1,-15.8,5.73,2.03,-12.1,25.7
2015-05-05 01:01:00,0.0,1.91390,0.00029,404.369,0.032,0.2355,0.0019,140.000,45.000,34280.62064,1.91836,405.520,32.853,45.068,45.000,0.00,0.09,-272.72,-272.78,-3,972,-2,21.6,6.9,-15.9,21.3,7.1,-15.8,5.73,2.02,-12.0,25.6
2015-05-05 01:02:00,0.0,1.91356,0.00044,404.342,0.026,0.2395,0.0019,139.998,45.000,34282.73084,1.91811,405.513,32.813,45.068,45.000,0.00,0.09,-272.72,-272.78,-3,972,-2,21.7,7.0,-15.7,21.3,7.2,-15.5,5.73,2.03,-12.0,25.7
2015-05-05 01:03:00,0.0,1.91342,0.00043,404.358,0.035,0.2382,0.0021,139.998,45.000,34285.80245,1.91796,405.523,32.806,45.069,45.000,0.00,0.09,-272.71,-272.78,-3,973,-2,21.7,7.0,-15.7,21.3,7.2,-15.5,5.73,2.03,-12.0,25.7
2015-05-05 01:04:00,0.0,1.91395,0.00039,404.345,0.030,0.2340,0.0027,139.998,45.000,34287.47458,1.91837,405.489,32.745,45.069,45.000,0.00,0.09,-272.72,-272.77,-3,974,-2,21.7,6.8,-15.9,21.3,7.1,-15.7,5.73,2.06,-12.0,25.7
2015-05-05 01:05:00,0.0,1.91367,0.00019,404.372,0.031,0.2323,0.0022,140.000,44.999,34291.43369,1.91806,405.509,32.668,45.068,45.000,0.00,0.09,-272.72,-272.78,-4,974,-2,21.7,6.8,-16.1,21.3,7.0,-15.8,5.73,2.08,-12.0,25.7
2015-05-05 01:06:00,0.0,1.91367,0.00032,404.353,0.030,0.2330,0.0019,140.001,44.999,34294.08041,1.91807,405.491,32.586,45.068,45.000,0.00,0.09,-272.71,-272.78,-4,975,-2,21.7,6.8,-16.1,21.3,7.0,-15.8,5.73,2.05,-12.0,25.9
2015-05-05 01:07:00,0.0,1.91387,0.00047,404.369,0.038,0.2325,0.0020,139.995,44.999,34290.89915,1.91831,405.506,32.503,45.068,45.000,0.00,0.09,-272.72,-272.78,-4,976,-2,21.7,6.8,-16.0,21.4,7.0,-15.8,5.73,2.00,-12.0,25.8
2015-05-05 01:08:00,0.0,1.91359,0.00048,404.317,0.042,0.2344,0.0022,139.996,44.999,34293.68926,1.91803,405.465,32.419,45.069,45.000,0.00,0.09,-272.72,-272.78,-4,976,-2,21.7,6.8,-16.0,21.4,7.0,-15.8,5.73,1.96,-12.0,25.9
2015-05-05 01:09:00,0.0,1.91335,0.00030,404.289,0.033,0.2370,0.0016,139.997,44.999,34295.74199,1.91785,405.448,32.355,45.069,45.001,0.00,0.09,-272.72,-272.78,-4,977,-2,21.7,6.9,-15.8,21.4,7.1,-15.6,5.73,1.99,-12.0,25.9
2015-05-05 01:10:00,0.0,1.91366,0.00042,404.292,0.018,0.2333,0.0017,139.999,44.999,34296.97155,1.91806,405.435,32.293,45.069,45.001,0.00,0.09,-272.72,-272.78,-5,977,-2,21.7,6.8,-16.0,21.4,7.1,-15.7,5.73,2.05,-12.0,25.9
2015-05-05 01:11:00,0.0,1.91377,0.00034,404.328,0.032,0.2309,0.0015,139.999,44.999,34296.01885,1.91813,405.456,32.228,45.069,45.001,0.00,0.09,-272.72,-272.77,-4,978,-2,21.7,6.7,-16.1,21.4,7.0,-15.9,5.73,2.08,-12.0,26.0
2015-05-05 01:12:00,0.0,1.91374,0.00034,404.358,0.048,0.2299,0.0018,140.002,44.999,34293.43608,1.91809,405.483,32.188,45.069,45.001,0.00,0.09,-272.72,-272.78,-4,978,-2,21.7,6.7,-16.2,21.4,6.9,-16.0,5.73,2.06,-12.0,26.0
2015-05-05 01:13:00,0.0,1.91362,0.00034,404.323,0.042,0.2282,0.0017,139.998,44.999,34293.67064,1.91797,405.439,32.153,45.069,45.001,0.00,0.09,-272.72,-272.77,-4,978,-2,21.7,6.6,-16.3,21.4,6.9,-16.0,5.73,1.98,-12.0,25.9
2015-05-05 01:14:00,0.0,1.91372,0.00050,404.353,0.032,0.2239,0.0017,140.003,45.000,34292.84220,1.91794,405.449,32.124,45.069,45.001,0.00,0.09,-272.72,-272.77,-5,978,-2,21.7,6.5,-16.5,21.3,6.8,-16.2,5.73,1.96,-12.0,25.9
2015-05-05 01:15:00,0.0,1.91381,0.00036,404.336,0.047,0.2244,0.0016,140.002,44.999,34294.04750,1.91805,405.432,32.089,45.069,45.000,0.00,0.09,-272.72,-272.78,-5,978,-2,21.7,6.5,-16.5,21.3,6.8,-16.3,5.73,2.01,-12.0,25.9
2015-05-05 01:16:00,0.0,1.91376,0.00048,404.332,0.033,0.2240,0.0015,139.998,44.999,34294.39259,1.91804,405.428,32.062,45.069,45.000,0.00,0.09,-272.72,-272.78,-4,979,-2,21.7,6.5,-16.5,21.3,6.7,-16.3,5.73,2.08,-12.0,26.0
2015-05-05 01:17:00,0.0,1.91372,0.00033,404.347,0.039,0.2205,0.0018,140.002,45.000,34297.43418,1.91788,405.424,32.024,45.069,45.000,0.00,0.09,-272.71,-272.77,-4,979,-2,21.7,6.4,-16.7,21.3,6.7,-16.5,5.73,2.08,-12.0,26.0
2015-05-05 01:18:00,0.0,1.91388,0.00021,404.349,0.023,0.2176,0.0012,140.001,44.999,34294.50680,1.91797,405.412,32.000,45.068,45.000,0.00,0.09,-272.72,-272.78,-5,979,-2,21.7,6.3,-16.8,21.3,6.6,-16.6,5.73,2.01,-12.0,26.0
2015-05-05 01:19:00,0.0,1.91384,0.00043,404.383,0.034,0.2223,0.0024,140.001,45.000,34292.42040,1.91806,405.468,31.982,45.068,45.000,0.00,0.09,-272.72,-272.78,-5,979,-2,21.7,6.4,-16.6,21.4,6.7,-16.4,5.73,1.95,-12.0,26.0
2015-05-05 01:20:00,0.0,1.91415,0.00053,404.386,0.041,0.2184,0.0031,140.001,45.000,34293.57093,1.91825,405.453,31.950,45.068,45.000,0.00,0.09,-272.71,-272.78,-4,980,-2,21.7,6.4,-16.7,21.4,6.6,-16.5,5.73,2.00,-12.0,26.0
2015-05-05 01:21:00,0.0,1.91404,0.00038,404.414,0.033,0.2142,0.0016,139.999,45.000,34295.05564,1.91812,405.462,31.938,45.068,45.000,0.00,0.09,-272.72,-272.78,-5,980,-2,21.7,6.2,-17.0,21.4,6.5,-16.8,5.73,2.09,-12.0,25.9
2015-05-05 01:22:00,0.0,1.91390,0.00037,404.391,0.036,0.2111,0.0016,139.996,45.000,34292.60413,1.91792,405.422,31.938,45.069,45.000,0.00,0.09,-272.73,-272.78,-5,979,-2,21.7,6.1,-17.2,21.4,6.4,-16.9,5.73,2.08,-12.0,25.9
2015-05-05 01:23:00,0.0,1.91388,0.00039,404.409,0.031,0.2105,0.0018,139.999,45.000,34294.73445,1.91785,405.438,31.934,45.068,45.000,0.00,0.09,-272.72,-272.78,-5,979,-2,21.7,6.1,-17.2,21.3,6.4,-17.0,5.73,1.99,-12.0,25.9
2015-05-05 01:24:00,0.0,1.91419,0.00033,404.403,0.048,0.2125,0.0034,140.001,45.000,34292.61004,1.91820,405.443,31.901,45.068,45.000,0.00,0.09,-272.72,-272.77,-4,979,-2,21.7,6.2,-17.2,21.3,6.4,-17.0,5.73,1.95,-12.0,26.0
2015-05-05 01:25:00,0.0,1.91431,0.00044,404.445,0.036,0.2101,0.0031,140.000,45.000,34290.80183,1.91830,405.472,31.891,45.068,45.000,0.00,0.09,-272.72,-272.78,-5,980,-2,21.7,6.1,-17.2,21.3,6.4,-17.0,5.73,2.02,-12.0,25.9
2015-05-05 01:26:00,0.0,1.91440,0.00034,404.486,0.042,0.2071,0.0019,139.999,45.000,34289.04982,1.91828,405.498,31.875,45.068,45.000,0.00,0.09,-272.73,-272.78,-5,979,-2,21.7,6.0,-17.4,21.3,6.3,-17.2,5.73,2.09,-12.0,26.0
2015-05-05 01:27:00,0.0,1.91447,0.00046,404.474,0.032,0.2052,0.0025,140.000,45.000,34288.33383,1.91834,405.477,31.875,45.068,45.000,0.00,0.09,-272.72,-272.77,-5,980,-2,21.7,5.9,-17.6,21.3,6.2,-17.3,5.73,2.06,-12.0,26.0
2015-05-05 01:28:00,0.0,1.91456,0.00037,404.475,0.044,0.2036,0.0018,139.997,45.000,34287.39455,1.91842,405.470,31.875,45.068,45.000,0.00,0.09,-272.72,-272.78,-4,980,-2,21.7,5.9,-17.7,21.3,6.1,-17.5,5.73,1.96,-12.0,25.9
2015-05-05 01:29:00,0.0,1.91461,0.00025,404.482,0.038,0.2024,0.0017,140.001,45.000,34288.73978,1.91846,405.472,31.874,45.068,45.000,0.00,0.09,-272.72,-272.78,-5,980,-2,21.7,5.8,-17.8,21.3,6.1,-17.5,5.73,1.96,-12.0,25.9
2015-05-05 01:30:00,0.0,1.91472,0.00032,404.477,0.026,0.2014,0.0021,140.003,45.000,34289.83485,1.91850,405.462,31.863,45.068,45.000,0.00,0.09,-272.71,-272.77,-5,979,-2,21.7,5.8,-17.8,21.3,6.1,-17.6,5.73,2.05,-12.0,25.9
2015-05-05 01:31:00,0.0,1.91446,0.00031,404.488,0.032,0.2030,0.0018,140.000,45.000,34288.16435,1.91831,405.480,31.866,45.068,45.000,0.00,0.09,-272.72,-272.78,-4,980,-2,21.7,5.9,-17.7,21.3,6.1,-17.5,5.73,2.10,-12.0,25.8
2015-05-05 01:32:00,0.0,1.91445,0.00029,404.476,0.032,0.2024,0.0021,140.000,45.000,34288.23549,1.91828,405.466,31.866,45.068,45.000,0.00,0.09,-272.72,-272.78,-5,980,-2,21.7,5.9,-17.7,21.3,6.1,-17.5,5.73,2.03,-11.9,25.8
2015-05-05 01:33:00,0.0,1.91460,0.00034,404.463,0.032,0.2028,0.0016,139.998,45.000,34287.91837,1.91846,405.455,31.868,45.068,45.000,0.00,0.09,-272.71,-272.77,-5,979,-2,21.7,5.9,-17.8,21.3,6.1,-17.5,5.73,1.96,-11.9,25.8
2015-05-05 01:34:00,0.0,1.91463,0.00035,404.495,0.035,0.2011,0.0017,140.000,45.000,34286.35647,1.91840,405.478,31.828,45.068,45.000,0.00,0.09,-272.72,-272.78,-5,979,-2,21.7,5.8,-17.8,21.3,6.1,-17.6,5.73,1.97,-11.9,25.8
2015-05-05 01:35:00,0.0,1.91472,0.00020,404.500,0.034,0.2006,0.0021,140.003,45.000,34288.36334,1.91852,405.479,31.824,45.068,45.000,0.00,0.30,-270.94,-272.32,-4,979,-2,21.7,5.8,-17.9,21.3,6.0,-17.6,5.43,2.25,-14.4,25.8
2015-05-05 01:36:00,0.0,1.91476,0.00035,404.505,0.031,0.1956,0.0015,140.002,45.000,34289.81788,1.91846,405.462,31.816,45.069,45.000,0.00,0.09,-272.73,-272.78,-5,980,-2,21.7,5.7,-18.2,21.3,5.9,-17.8,5.73,2.09,-11.9,25.8
2015-05-05 01:37:00,0.0,1.91500,0.00027,404.497,0.040,0.1975,0.0014,140.000,45.000,34287.55194,1.91876,405.463,31.814,45.069,45.000,0.00,0.09,-272.72,-272.77,-5,979,-2,21.7,5.7,-18.1,21.3,5.9,-17.9,5.73,2.05,-11.9,25.9
2015-05-05 01:38:00,0.0,1.91501,0.00038,404.551,0.031,0.1955,0.0023,140.001,45.000,34286.22265,1.91869,405.507,31.816,45.069,45.000,0.00,0.09,-272.72,-272.77,-5,979,-2,21.7,5.6,-18.2,21.3,5.9,-17.9,5.73,1.97,-11.9,25.8
2015-05-05 01:39:00,0.0,1.91500,0.00033,404.562,0.034,0.1949,0.0013,140.000,45.000,34285.60004,1.91870,405.513,31.855,45.069,45.000,0.00,0.09,-272.73,-272.78,-5,979,-2,21.7,5.6,-18.3,21.3,5.9,-18.0,5.73,1.97,-11.9,25.8
2015-05-05 01:40:00,0.0,1.91495,0.00049,404.528,0.022,0.1930,0.0012,139.998,45.000,34282.29540,1.91861,405.473,31.910,45.069,45.000,0.00,0.09,-272.71,-272.77,-5,979,-2,21.7,5.6,-18.3,21.3,5.8,-18.0,5.73,2.02,-11.9,25.8
2015-05-05 01:41:00,0.0,1.91480,0.00033,404.532,0.034,0.1953,0.0017,139.997,45.000,34283.11398,1.91848,405.485,32.003,45.068,45.000,0.00,0.09,-272.72,-272.77,-5,978,-2,21.7,5.6,-18.2,21.3,5.9,-18.0,5.73,2.04,-11.9,25.8
2015-05-05 01:42:00,0.0,1.91496,0.00040,404.512,0.025,0.1953,0.0018,139.997,45.001,34283.77798,1.91862,405.467,32.098,45.068,45.000,0.00,0.09,-272.72,-272.78,-5,978,-2,21.7,5.6,-18.2,21.4,5.9,-17.9,5.73,2.05,-11.9,25.9
2015-05-05 01:43:00,0.0,1.91490,0.00035,404.543,0.049,0.1938,0.0017,140.005,45.001,34286.24746,1.91861,405.489,32.203,45.068,44.999,0.00,0.09,-272.72,-272.77,-5,977,-2,21.7,5.6,-18.3,21.3,5.8,-18.0,5.73,2.04,-11.9,25.9
2015-05-05 01:44:00,0.0,1.91501,0.00028,404.522,0.033,0.1939,0.0025,140.000,45.001,34285.02231,1.91866,405.470,32.291,45.068,44.999,0.00,0.09,-272.72,-272.78,-5,977,-2,21.7,5.6,-18.3,21.4,5.9,-18.0,5.73,2.03,-11.9,25.9
2015-05-05 01:45:00,0.0,1.91494,0.00032,404.544,0.034,0.1925,0.0015,140.000,45.001,34288.16553,1.91861,405.484,32.389,45.067,44.999,0.00,0.09,-272.72,-272.78,-4,976,-2,21.7,5.6,-18.3,21.4,5.8,-18.0,5.73,2.03,-11.9,26.0
2015-05-05 01:46:00,0.0,1.91514,0.00040,404.530,0.030,0.1942,0.0017,140.002,45.001,34287.97722,1.91881,405.480,32.459,45.067,44.999,0.00,0.09,-272.72,-272.78,-4,975,-2,21.7,5.6,-18.2,21.4,5.9,-18.0,5.73,2.03,-11.9,26.0